Pittsburgh, PA

3:58 PM EDT on August 28, 2016 (GMT -0400)
Pittsburgh International

Weather History for KPIT - May, 2013

Change the Weather History Date:

Friday, May 10, 2013

  Actual Average Record
Temperature  
Mean Temperature 66 °F 58 °F  
Max Temperature 75 °F 69 °F 90 °F (1993)
Min Temperature 57 °F 48 °F 27 °F (1966)
Degree Days  
Heating Degree Days 0 8  
Month to date heating degree days 20 86  
Since 1 July heating degree days 5414 5562  
Cooling Degree Days 1 1  
Month to date cooling degree days 3 9  
Year to date cooling degree days 20 19  
Growing Degree Days 16 (Base 50)    
Moisture  
Dew Point 56 °F    
Average Humidity 72    
Maximum Humidity 90    
Minimum Humidity 54    
Precipitation  
Precipitation 0.51 in 0.12 in 1.41 in (1989)
Month to date precipitation 0.65 1.12  
Year to date precipitation 10.66 12.27  
Snow  
Snow 0.00 in 0.00 in 0.20 in (1923)
Month to date snowfall 0.0 0.0  
Since 1 July snowfall 57.4 41.9  
Snow Depth 0.00 in    
Sea Level Pressure  
Sea Level Pressure 29.91 in    
Wind  
Wind Speed 6 mph (SSW)    
Max Wind Speed 18 mph    
Max Gust Speed 30 mph    
Visibility 8 miles    
Events Rain , Thunderstorm    
T = Trace of Precipitation, MM = Missing Value Source: NWS Daily Summary

Daily Weather History Graph

Daily Weather History Graph

Search for Another Location

Airport or City:

Trip Planner

Search our weather history database for the weather conditions in past years. The results will help you decide how hot, cold, wet, or windy it might be!

Date:

Astronomy

May. 10, 2013 Rise Set
Actual Time 6:09 AM EDT 8:25 PM EDT
Civil Twilight 5:38 AM EDT 8:56 PM EDT
Nautical Twilight 5:01 AM EDT 9:34 PM EDT
Astronomical Twilight 4:19 AM EDT 10:15 PM EDT
Moon 6:32 AM EDT (5/10) 9:14 PM EDT (5/10)
Length of Visible Light 15h 17m
Length of Day
14h 16m
New Moon, 0% of the Moon is Illuminated
May 10
New Moon
May 18
First Quarter
May 25
Full
May 31
Last Quarter
Jun 8
New

Hourly Weather History & Observations

Time (EDT) Temp. Dew Point Humidity Pressure Visibility Wind Dir Wind Speed Gust Speed Precip Events Conditions
12:51 AM 60.1 °F 50.0 °F 69% 30.01 in 10.0 mi Calm Calm - N/A   Mostly Cloudy
1:51 AM 60.1 °F 53.1 °F 78% 30.01 in 9.0 mi Calm Calm - 0.01 in   Mostly Cloudy
2:51 AM 59.0 °F 53.1 °F 81% 29.99 in 10.0 mi Calm Calm - N/A   Mostly Cloudy
3:51 AM 57.9 °F 52.0 °F 81% 29.98 in 10.0 mi SSE 3.5 mph - N/A   Overcast
4:51 AM 59.0 °F 52.0 °F 78% 29.96 in 10.0 mi Calm Calm - N/A   Overcast
5:51 AM 59.0 °F 52.0 °F 78% 29.96 in 10.0 mi Calm Calm - 0.00 in   Overcast
6:51 AM 60.1 °F 53.1 °F 78% 29.98 in 10.0 mi SW 4.6 mph - N/A   Overcast
7:25 AM 62.6 °F 53.6 °F 72% 29.98 in 4.0 mi West 13.8 mph 24.2 mph 0.00 in Rain Light Rain
7:51 AM 60.1 °F 55.9 °F 86% 29.98 in 5.0 mi SSW 3.5 mph - 0.04 in Rain Light Rain
8:51 AM 60.1 °F 57.0 °F 90% 29.98 in 7.0 mi South 4.6 mph - 0.01 in Rain Light Rain
9:51 AM 61.0 °F 57.0 °F 87% 29.96 in 7.0 mi SSE 6.9 mph - 0.00 in   Overcast
10:51 AM 66.0 °F 59.0 °F 78% 29.95 in 8.0 mi South 9.2 mph - N/A   Overcast
11:51 AM 70.0 °F 57.9 °F 65% 29.94 in 10.0 mi South 12.7 mph 17.3 mph N/A   Overcast
12:51 PM 72.0 °F 59.0 °F 64% 29.93 in 10.0 mi South 9.2 mph - N/A   Overcast
1:51 PM 73.0 °F 57.9 °F 59% 29.91 in 10.0 mi SSW 11.5 mph 19.6 mph N/A   Overcast
2:51 PM 75.0 °F 57.0 °F 53% 29.88 in 10.0 mi SSW 11.5 mph 17.3 mph N/A   Overcast
3:51 PM 75.0 °F 55.9 °F 51% 29.86 in 10.0 mi SSW 9.2 mph 17.3 mph N/A Thunderstorm Thunderstorm
4:46 PM 64.4 °F 55.4 °F 73% 29.86 in 10.0 mi Variable 3.5 mph - 0.03 in   Overcast
4:51 PM 64.9 °F 57.0 °F 75% 29.87 in 10.0 mi Calm Calm - 0.03 in   Overcast
5:39 PM 62.6 °F 57.2 °F 82% 29.90 in 3.0 mi WSW 17.3 mph 26.5 mph 0.12 in Rain , Thunderstorm Thunderstorms and Rain
5:51 PM 62.1 °F 59.0 °F 90% 29.91 in 3.0 mi SW 9.2 mph 19.6 mph 0.19 in Rain , Thunderstorm Thunderstorms and Rain
6:20 PM 62.6 °F 59.0 °F 88% 29.87 in 8.0 mi South 4.6 mph - 0.03 in   Overcast
6:51 PM 62.1 °F 59.0 °F 90% 29.87 in 8.0 mi South 6.9 mph - 0.03 in   Overcast
7:51 PM 62.1 °F 57.9 °F 86% 29.86 in 10.0 mi SSW 9.2 mph - 0.00 in Rain Light Rain
8:51 PM 61.0 °F 57.9 °F 90% 29.84 in 5.0 mi South 6.9 mph - 0.02 in Rain Light Rain
9:27 PM 62.6 °F 57.2 °F 82% 29.83 in 4.0 mi SW 10.4 mph 17.3 mph 0.05 in Rain Light Rain
9:51 PM 61.0 °F 57.9 °F 90% 29.84 in 6.0 mi SSW 5.8 mph - 0.07 in Rain Light Rain
10:34 PM 60.8 °F 57.2 °F 88% 29.82 in 6.0 mi SSW 10.4 mph - 0.07 in Rain Light Rain
10:51 PM 61.0 °F 57.9 °F 90% 29.83 in 6.0 mi SSW 8.1 mph - 0.08 in Rain Light Rain
11:42 PM 60.8 °F 57.2 °F 88% 29.81 in 9.0 mi SW 8.1 mph - 0.00 in Rain Light Rain
11:51 PM 61.0 °F 57.9 °F 90% 29.82 in 9.0 mi SW 6.9 mph - 0.00 in Rain Light Rain